Orbital Elements at Epoch 2459000.5 (2020-May-31.0) TDB
Reference: JPL 15 (heliocentric ecliptic J2000)
Element | Value | Uncertainty (1-sigma) | Units |
e | .06820174772139437 | 5.95e-08 | |
a | 2.996332198465224 | 3.9306e-08 | au |
q | 2.791977105776008 | 1.7464e-07 | au |
i | 10.64699118203617 | 8.0388e-06 | deg |
node | 128.3436329778282 | 4.3131e-05 | deg |
peri | 150.7668825773666 | 8.5282e-05 | deg |
M | 203.4300335149775 | 7.7489e-05 | deg |
tp | 2459824.428122486498 (2022-Sep-01.92812249) | 0.00041432 | TDB |
period | 1894.450964984485 5.19 | 3.7277e-05 1.021e-07 | d yr |
n | .1900286714483256 | 3.7392e-09 | deg/d |
Q | 3.20068729115444 | 4.1987e-08 | au |
|
| | Orbit Determination Parameters
Additional Information
|